Colorado Springs, CO

8:37 AM MDT on August 24, 2016 (GMT -0600)
City Of Colorado Springs Municipal

Weather History for KCOS - January, 2012

Change the Weather History Date:

Monday, January 2, 2012

  Actual Average Record
Temperature  
Mean Temperature 32 °F 30 °F  
Max Temperature 47 °F 43 °F 73 °F (1997)
Min Temperature 16 °F 17 °F -15 °F (1911)
Degree Days  
Heating Degree Days 33 35  
Month to date heating degree days 69 70  
Since 1 July heating degree days 2459 2642  
Cooling Degree Days 0 0  
Month to date cooling degree days 0 0  
Year to date cooling degree days 0 0  
Moisture  
Dew Point 14 °F    
Average Humidity 50    
Maximum Humidity 74    
Minimum Humidity 25    
Precipitation  
Precipitation 0.00 in 0.01 in 0.34 in (1906)
Month to date precipitation 0.00 0.02  
Year to date precipitation 0.00 0.02  
Snow  
Snow 0.00 in 0.20 in 8.40 in (1971)
Month to date snowfall 0.0 0.4  
Since 1 July snowfall 16.3 13.9  
Snow Depth 0.00 in    
Sea Level Pressure  
Sea Level Pressure 30.60 in    
Wind  
Wind Speed 5 mph (NNE)    
Max Wind Speed 12 mph    
Max Gust Speed 13 mph    
Visibility 10 miles    
Events      
T = Trace of Precipitation, MM = Missing Value Source: NWS Daily Summary

Daily Weather History Graph

Daily Weather History Graph

Search for Another Location

Airport or City:

Trip Planner

Search our weather history database for the weather conditions in past years. The results will help you decide how hot, cold, wet, or windy it might be!

Date:

Astronomy

Jan. 02, 2012 Rise Set
Actual Time 7:17 AM MST 4:48 PM MST
Civil Twilight 6:47 AM MST 5:18 PM MST
Nautical Twilight 6:14 AM MST 5:51 PM MST
Astronomical Twilight 5:41 AM MST 6:23 PM MST
Moon 12:04 PM MST (1/2) 1:14 AM MST (1/2)
Length of Visible Light 10h 30m
Length of Day
9h 31m
Waxing Gibbous, 64% of the Moon is Illuminated
Jan 2
Waxing Gibbous
Jan 9
Full
Jan 16
Last Quarter
Jan 23
New
Jan 30
First Quarter

Hourly Weather History & Observations

Time (MST) Temp. Windchill Dew Point Humidity Pressure Visibility Wind Dir Wind Speed Gust Speed Precip Events Conditions
12:54 AM 19.0 °F 13.9 °F 10.9 °F 71% 30.74 in 10.0 mi NNW 3.5 mph - N/A   Clear
1:54 AM 17.1 °F 7.6 °F 9.0 °F 71% 30.74 in 10.0 mi North 6.9 mph - N/A   Clear
2:54 AM 17.1 °F 7.6 °F 9.0 °F 71% 30.76 in 10.0 mi NNE 6.9 mph - N/A   Partly Cloudy
3:54 AM 18.0 °F 11.1 °F 10.0 °F 71% 30.76 in 10.0 mi North 4.6 mph - N/A   Partly Cloudy
4:54 AM 19.9 °F 14.9 °F 10.9 °F 68% 30.77 in 10.0 mi NW 3.5 mph - N/A   Clear
5:54 AM 19.0 °F 10.0 °F 10.9 °F 71% 30.77 in 10.0 mi NNE 6.9 mph - N/A   Clear
6:54 AM 24.1 °F 15.2 °F 12.9 °F 62% 30.76 in 10.0 mi North 8.1 mph - N/A   Clear
7:54 AM 24.8 °F 17.9 °F 12.2 °F 59% 30.58 in 10.0 mi North 5.8 mph - N/A   Clear
8:54 AM 33.8 °F 30.8 °F 19.4 °F 56% 30.60 in 10.0 mi NE 3.5 mph - N/A   Clear
9:54 AM 41.0 °F - 12.0 °F 31% 30.70 in 10.0 mi Calm Calm - N/A   Clear
10:54 AM 44.1 °F 40.1 °F 12.9 °F 28% 30.66 in 10.0 mi South 6.9 mph - N/A   Clear
11:54 AM 44.1 °F 40.8 °F 10.0 °F 25% 30.61 in 10.0 mi SE 5.8 mph - N/A   Clear
12:54 PM 46.0 °F 42.5 °F 12.9 °F 26% 30.56 in 10.0 mi South 6.9 mph - N/A   Clear
1:54 PM 45.0 °F 42.6 °F 17.1 °F 33% 30.55 in 10.0 mi SE 4.6 mph - N/A   Clear
2:54 PM 45.0 °F 41.2 °F 18.0 °F 34% 30.54 in 10.0 mi SSE 6.9 mph - N/A   Clear
3:54 PM 45.0 °F - 16.0 °F 31% 30.54 in 10.0 mi Calm Calm - N/A   Clear
4:54 PM 43.0 °F - 15.1 °F 32% 30.52 in 10.0 mi Calm Calm - N/A   Clear
5:54 PM 37.9 °F - 16.0 °F 41% 30.56 in 10.0 mi Calm Calm - N/A   Clear
6:54 PM 28.9 °F 22.8 °F 17.1 °F 61% 30.56 in 10.0 mi North 5.8 mph - N/A   Clear
7:54 PM 30.0 °F 26.5 °F 19.0 °F 64% 30.54 in 10.0 mi NNW 3.5 mph - N/A   Clear
8:54 PM 32.0 °F 26.4 °F 19.0 °F 59% 30.47 in 10.0 mi North 5.8 mph - N/A   Clear
9:54 PM 32.0 °F 24.2 °F 17.1 °F 54% 30.41 in 10.0 mi NNE 9.2 mph - N/A   Clear
10:54 PM 34.0 °F 28.0 °F 15.1 °F 46% 30.36 in 10.0 mi North 6.9 mph - N/A   Clear
11:54 PM 35.1 °F 29.3 °F 15.1 °F 44% 30.32 in 10.0 mi North 6.9 mph - N/A   Clear